星链-4783 (STARLINK-4783 )

导读

STARLINK-4783是美国太空探索技术公司(SpaceX)星链(Starlink)星座的一员,星链计划旨在构建全球卫星互联网。该卫星于2022年9月19日发射升空,承担低轨互联网通信传输任务,入轨后参与星座组网,为全球多个地区提供高速宽带服务,补充完善了星链低轨卫星通信网络的覆盖与服务能力。

Basic Information
目录编号:
53835
目录名称:
STARLINK-4783
国际标识:
2022-114T
轨道中心:
EARTH
卫星名称:
星链-4783
卫星全名:
星链-4783 (STARLINK-4783 )
卫星状态:
在轨 (已飞行1367 天)
发射日期:
2022-09-19 UTC
国别 :
美国 (US)
星等 :
--
Orbit Information
数据来源 国际轨道数据 AOE轨道数据
星历时间 2026-06-17T04:18:28+0800
13小时前
查看轨道信息
2026-06-16T03:00:00+0800
1天前
查看轨道信息
半长轴 6917.914km 6917.899km
偏心率 0.0001032 0.0001057
轨道倾角 53.160° 53.157°
近地点辐角 94.788° 28.137°
升交点赤经 218.686° 223.425°
平近点角 265.323° 1.102°
近地点 539.063km 539.03km
远地点 540.491km 540.494km
周期 95.438分钟 95.438分钟
每日圈数 15.088292 15.088341
Detailed Information
固有亮度:
5
最大亮度:
2.5
卫星平台:
Starlink v1.5
覆盖范围:
全球
运营商:
太空探索技术公司
运营商所在国:
美国
制造商(研发单位):
太空探索技术公司
制造商所在国:
美国
使用方式:
暂无
Satellite Introduction
星链(Starlink)计划是由太空探索技术公司(SpaceX)提出的一个巨型低轨卫星互联网星座项目,计划在2019年至2024年间在太空搭建由约1.2万颗卫星组成的“星链”网络,其中1584颗将部署在地球上空550千米处的近地轨道,并从2020年开始工作。该卫星仍在工作。
2D Orbit Map
3D Orbit Map
Orbit Altitude Analysis Chart
Orbit Inclination Analysis Chart
Orbit Comprehensive Analysis Chart
View Comprehensive Chart